Weather in Krasnyy Yar

Russia / Perm Krai     57°23′14″N   54°26′44″E
temp.,
°C
wind,
m/s
gust,
m/s
humid.,
%
clouds,
%
prec.,
mm/h
press.,
hPa
HPBL,
m
2 march, tue
tue223:00−17ssw499865 0.0 1015145
02:00−17ssw6139596 0.0 1012270
05:00−16ssw7129598 0.0 1008337
08:00−15ssw81495100 0.7 1004486
11:00−12ssw81494100 2.1 1001587
14:00−9ssw81394100 1.5 998614
17:00−7ssw71294100 2.8 997591
20:00−7s51095100 1.3 995435
3 march, wed
wed323:00−6sse3696100 2.3 994194
02:00−6wsw0197100 0.4 99321
05:00−5nw2396100 1.5 994113
08:00−8nw339594 0.0 99557
11:00−5wnw359487 0.1 996242
14:00−3w359697 0.3 996354
17:00−2w469598 1.1 997473
20:00−5w3597100 0.4 997127
4 march, thu
thu423:00−5nnw51095100 1.0 999564
02:00−9wnw4993100 0.2 999230
05:00−14w349671 0.2 100056
08:00−12wsw489594 0.0 1001235
11:00−10wsw579397 0.1 1001328
14:00−7sw5892100 0.1 1000534
17:00−5ssw61092100 0.2 999739
20:00−6ssw71394100 0.2 997570
5 march, fri
fri523:00−5s71494100 0.8 993718
02:00−3ssw91695100 1.4 989842
05:00−1sw101694100 2.4 987965
08:00−4wsw8149075 0.4 988596
11:00−6wsw10158381 0.6 9931185
14:00−7w9148599 0.1 997821
17:00−7w6118799 0.1 1001679
20:00−11w4893100 0.0 1004156
6 march, sat
sat623:00−14wnw459482 0.0 100892
02:00−17wnw34960 0.0 100942
05:00−20w1210011 0.0 101120
08:00−20sw1199100 0.0 101120
11:00−15e1292100 0.0 1009150
14:00−11ene3488100 0.0 1005364
17:00−10ne4693100 0.1 1002367
20:00−12n5894100 0.5 1001266